Location: Lancaster
(34.6980°N, 118.1360°W)
Time: 15:42:23
(UTC-08:00)

Vanguard 2 Rocket - Visible Passes

Search period start: 19 February 2018 00:00
Search period end: 01 March 2018 00:00
Orbit: 555 x 3327 km, 32.9° (Epoch: 19 February)

Date Brightness Start Highest point End Pass type
(mag) Time Alt. Az. Time Alt. Az. Time Alt. Az.
19 Feb 9.4 02:30:31 78° SE 02:30:31 78° SE 02:48:47 10° ESE visible
19 Feb 9.6 04:36:19 32° W 04:47:20 57° SSW 05:03:52 10° SE visible
19 Feb 9.5 20:44:30 10° SSW 20:47:03 20° S 20:47:03 20° S visible
20 Feb 9.9 01:34:21 50° ESE 01:34:21 50° ESE 01:47:12 10° E visible
20 Feb 9.4 03:40:10 55° WSW 03:45:29 67° SSW 04:03:50 10° SE visible
20 Feb 10.0 05:45:58 11° W 06:02:12 35° SW 06:16:02 10° SSE visible
20 Feb 9.3 19:47:06 10° S 19:51:18 21° SSE 19:51:18 21° SSE visible
20 Feb 10.1 21:56:40 10° SW 21:57:08 12° SW 21:57:08 12° SW visible
21 Feb 10.5 00:38:15 27° E 00:38:15 27° E 00:45:05 10° E visible
21 Feb 9.4 02:44:04 75° S 02:44:04 75° S 03:03:06 10° ESE visible
21 Feb 9.8 04:49:53 27° W 05:01:06 46° SW 05:17:13 10° SSE visible
21 Feb 9.5 18:51:49 10° SSE 18:54:55 12° SE 18:55:34 12° ESE visible
21 Feb 9.3 20:58:03 10° SW 21:01:24 27° SSW 21:01:24 27° SSW visible
21 Feb 11.0 23:42:13 11° E 23:42:13 11° E 23:42:32 10° E visible
22 Feb 9.8 01:48:02 53° ESE 01:48:02 53° ESE 02:01:40 10° ESE visible
22 Feb 9.5 03:53:51 47° WSW 03:59:30 57° SSW 04:17:32 10° SE visible
22 Feb 10.3 06:01:18 10° W 06:15:36 25° SW 06:27:58 10° S visible
22 Feb 8.8 20:00:01 10° SSW 20:05:40 32° SSE 20:05:40 32° SSE visible
22 Feb 10.1 22:10:56 10° WSW 22:11:31 13° WSW 22:11:31 13° WSW visible
23 Feb 10.4 00:52:04 30° E 00:52:04 30° E 00:59:37 10° E visible
23 Feb 9.4 02:57:54 66° SSW 02:57:54 66° SSW 03:17:06 10° SE visible
23 Feb 10.0 05:03:43 22° W 05:14:42 35° SW 05:29:54 10° SSE visible
23 Feb 9.0 19:02:51 10° S 19:08:17 20° SE 19:09:55 20° ESE visible
23 Feb 9.1 21:12:03 10° SW 21:15:45 32° SW 21:15:45 32° SW visible
23 Feb 11.0 23:56:10 12° E 23:56:10 12° E 23:57:07 10° E visible
24 Feb 9.7 02:02:00 53° SE 02:02:00 53° SE 02:15:55 10° ESE visible
24 Feb 9.7 04:07:50 39° WSW 04:13:21 45° SW 04:30:44 10° SSE visible
24 Feb 8.4 20:13:37 10° SW 20:19:59 45° SSE 20:19:59 45° SSE visible
24 Feb 10.1 22:25:23 10° WSW 22:25:49 12° WSW 22:25:49 12° WSW visible
25 Feb 10.3 01:06:10 30° ESE 01:06:10 30° ESE 01:14:03 10° ESE visible
25 Feb 9.5 03:12:00 55° SSW 03:12:00 55° SSW 03:30:41 10° SE visible
25 Feb 10.3 05:17:50 16° W 05:28:14 25° SW 05:41:37 10° S visible
25 Feb 8.6 19:15:44 10° SSW 19:21:51 31° SE 19:24:11 28° ESE visible
25 Feb 9.1 21:26:22 10° WSW 21:30:01 33° WSW 21:30:01 33° WSW visible
26 Feb 10.9 00:10:23 13° E 00:10:23 13° E 00:11:39 10° E visible
26 Feb 9.8 02:16:13 49° SSE 02:16:13 49° SSE 02:29:50 10° SE visible
26 Feb 9.9 04:22:04 31° WSW 04:27:05 34° SW 04:43:14 10° SSE visible
26 Feb 8.9 18:18:47 10° S 18:22:56 17° SE 18:28:21 10° E visible
26 Feb 8.1 20:27:41 10° SW 20:34:11 57° S 20:34:11 57° S visible
26 Feb 10.2 22:39:57 10° W 22:40:01 10° W 22:40:01 10° W visible
27 Feb 10.3 01:20:29 30° ESE 01:20:29 30° ESE 01:28:15 10° ESE visible
27 Feb 9.7 03:26:20 44° SSW 03:26:20 44° SSW 03:43:43 10° SSE visible
27 Feb 10.5 05:32:11 10° WSW 05:41:49 16° SW 05:51:24 10° SSW visible
27 Feb 8.1 19:29:23 10° SW 19:35:41 43° SSE 19:38:18 36° ESE visible
27 Feb 9.2 21:40:51 10° WSW 21:44:08 30° WSW 21:44:08 30° WSW visible
28 Feb 10.9 00:24:47 13° ESE 00:24:47 13° ESE 00:26:03 10° ESE visible
28 Feb 9.9 02:30:39 42° SSE 02:30:39 42° SSE 02:43:17 10° SE visible
28 Feb 10.2 04:36:29 22° WSW 04:40:48 24° SW 04:54:40 10° S visible
28 Feb 8.4 18:31:36 10° SSW 18:36:35 27° SE 18:42:23 14° E visible
28 Feb 8.0 20:42:00 10° WSW 20:48:13 64° SSW 20:48:13 64° SSW visible
